sat.trackr.live / text

‹ back to catalog

STARLINK-3574

NORAD 51874 · 2022-022Y

PAYLOAD ACTIVE UNKNOWN

§ Identity

Operator
Country
US
Launch date
2022-03-03
Launch site
AFETR
Launch vehicle
Mass (kg)
RCS (m²)

Purposes: comms

External: N2YO · Heavens-Above · Gunter

§ Orbital elements

Epoch: 2026-09-20T02:41:09.671136Z

Period
93.79 min
Inclination
53.1576°
Eccentricity
0.0001057
Mean motion
15.35397266 rev/d
Perigee alt
459.0 km
Apogee alt
460.5 km
Semi-major
6,837.9 km
B*
-2.6907e-5
RAAN
205.3638°
Arg perigee
72.9579°
Mean anomaly
287.1540°
Rev number
25,260

§ Raw data

STARLINK-35741 51874U 22022Y   26263.11191749 -.00001319  00000+0 -26907-4 0  99982 51874  53.1576 205.3638 0001057  72.9579 287.1540 15.35397266252602

JSON: /api/v1/satellites/51874 · /tle

For live sub-satellite position, see the globe view (requires WebGL).

§ Visibility from observer

Set your observer location to see the next 7 days of passes ≥ 10°. The values pass through the URL so the page stays shareable.

No JS? Fill the form by hand. The geolocation button needs JavaScript.